Weather in Sablino

Russia / Orenburg Oblast     53°00′24″N   53°17′14″E
temp.,
°C
wind,
m/s
gust,
m/s
humid.,
%
clouds,
%
prec.,
mm/h
press.,
hPa
HPBL,
m
23 october, sat
sat2323:00+10sw7167442 0.0 1009614
02:00+10sw7147550 0.0 1009543
05:00+8sw512885 0.0 1011320
08:00+7sw4119419 0.0 1012255
11:00+11sw61276100 0.0 1013499
14:00+14sw8125557 0.0 10131107
17:00+15wsw7145433 0.0 10131525
20:00+11wsw41071100 0.0 1015232
24 october, sun
sun2423:00+9ssw2376100 0.0 101538
02:00+9sse3581100 0.0 101493
05:00+10s61382100 0.9 1011538
08:00+9sw61390100 2.4 1010630
11:00+9wnw71186100 4.1 1011802
14:00+10w685835 0.0 10131247
17:00+10w57539 0.0 10141260
20:00+6w356848 0.0 101689
25 october, mon
mon2523:00+5wsw227343 0.0 101611
02:00+5wsw1175100 0.0 101510
05:00+4ssw1175100 0.0 101513
08:00+4sw1175100 0.0 101411
11:00+6w3466100 0.0 1015321
14:00+8wnw4553100 0.0 10141401
17:00+6nw6670100 0.3 1015875
20:00+4nnw698596 0.1 1019746
26 october, tue
tue2623:00+3nnw6985100 0.3 1020793
02:00+1n59777 0.0 1023573
05:00−2nnw488125 0.0 1026259
08:00−3nw2384100 0.0 102772
11:00+1wnw34585 0.0 1028408
14:00+4w454038 0.0 1027865
17:00+4wsw5743100 0.0 1026865
20:00+2wsw5105098 0.0 1027468
27 october, wed
wed2723:00+1sw4105785 0.0 1027325
02:00+1sw41060100 0.0 1026299
05:00−1sw39695 0.0 1026222
08:00−2sw397723 0.0 1026194
11:00+3sw69595 0.0 1026415
14:00+7wsw7104424 0.0 1025722
17:00+7wsw611445 0.0 1024691
20:00+4sw513535 0.0 1025358